Location: Paddlesworth
(51.1000°N, 1.1333°E)
Time: 08:03:45
(UTC+00:00)

USA 306 - Pass Details

Date: 11 May 2021
Orbit: 565 x 575 km, 54.0° (Epoch: 11 May)

Event Time Altitude Azimuth Distance (km) Brightness Sun altitude
Rises 20:39:39 0° 291° (WNW) 2,772 7.8 -9.0°
Reaches altitude 10° 20:41:54 10° 291° (WNW) 1,874 6.7 -9.3°
Maximum altitude 20:46:10 82° 204° (SSW) 581 2.9 -9.8°
Enters shadow 20:49:59 13° 117° (ESE) 1,697 4.7 -10.2°
